Regional Weather Roundup
Issued by NWS

Home | Current Version | Previous Version | Graphics & Text | Print | Product List | Glossary On
Versions: 1 2 3 4 5 6 7 8 9 10 11 12 13 14 15 16 17 18 19 20 21 22 23 24 25 26 27 28 29 30 31 32 33 34 35 36 37 38 39 40 41 42 43 44 45 46 47 48 49 50
000
ASUS43 KLSX 061459
RWRMO

WEATHER SUMMARY FOR MISSOURI
NATIONAL WEATHER SERVICE SPRINGFIELD MO
1000 AM CDT WED MAY 06 2015

NOTE: "FAIR" INDICATES FEW OR NO CLOUDS BELOW 12,000 FEET WITH NO
       SIGNIFICANT WEATHER AND/OR OBSTRUCTIONS TO VISIBILITY.
       CURRENT SKY AND/OR WEATHER CONDITIONS ARE NOT AVAILABLE FOR
       CHILLICOTHE AND FARMINGTON.

MOZ001>031-035>038-043-044-053-054-061600-
...NORTHERN AND WESTERN MISSOURI...

CITY           SKY/WX    TMP DP  RH WIND       PRES   REMARKS
KANSAS CTY INT CLOUDY    68  60  75 S17       29.95R
KANSAS C DTWN  CLOUDY    69  59  70 S15       29.95R
LEE`S SUMMIT   CLOUDY    66  58  75 S14G23    29.97R
ST JOSEPH      PTSUNNY   69  59  70 S22G30    29.92R
CHILLICOTHE      N/A     71  58  63 S14G21    29.96F
KIRKSVILLE     MOSUNNY   75  59  57 S20       30.04F

$$
MOZ066>068-077>081-088>096-101>105-061600-
...SOUTHWEST MISSOURI...

CITY           SKY/WX    TMP DP  RH WIND       PRES   REMARKS
SPRINGFIELD    RAIN      60  58  92 SE7       30.10S FOG
JOPLIN         LGT RAIN  65  61  87 S22G28    30.00F

$$
MOZ032>034-039>042-045>050-055>058-069>072-061600-
...CENTRAL MISSOURI...

CITY           SKY/WX    TMP DP  RH WIND       PRES   REMARKS
COLUMBIA       SUNNY     73  58  59 S15       30.07S
JEFFERSON CITY SUNNY     74  57  55 SE12      30.06F
ROLLA          SUNNY     75  57  53 S20       30.09F
SEDALIA        LGT RAIN  68  58  70 S17G28    30.03R
OSAGE BEACH    CLOUDY    73  57  56 S13       30.08S

$$
MOZ051-052-059>065-061600-
...EAST CENTRAL MISSOURI...

CITY           SKY/WX    TMP DP  RH WIND       PRES   REMARKS
ST LOUIS INTL  PTSUNNY   79  55  43 SW14G20   30.13F
SPIRIT OF STL  SUNNY     77  56  48 S8G20     30.11F
ST CHARLES     MOSUNNY   79  56  45 S14G21    30.12F

$$
MOZ072>076-082>087-097>100-106>115-061600-
...SOUTH CENTRAL AND SOUTHEAST MISSOURI...

CITY           SKY/WX    TMP DP  RH WIND       PRES   REMARKS
CAPE GIRARDEAU SUNNY     77  59  53 S9        30.16F
FARMINGTON     SUNNY     73  57  56 S10       30.19F
POPLAR BLUFF   SUNNY     77  56  48 S12       30.14S
WEST PLAINS    MOSUNNY   72  56  57 S12       30.14S

$$


USA.gov is the U.S. government's official web portal to all federal, state and local government web resources and services.